Time,TemperatureF,DewpointF,PressureIn,WindDirection,WindDirectionDegrees,WindSpeedMPH,WindSpeedGustMPH,Humidity,HourlyPrecipIn,Conditions,Clouds,dailyrainin,SoftwareType,DateUTC
2013-03-11 15:15:00,28.8,20.9,29.85,NW,319,0.0,0.0,72,0.00,,,0.00,Wunderground v.1.15,2013-03-11 20:15:00,
2013-03-11 15:25:00,29.8,21.9,29.84,NW,308,0.0,0.0,72,0.00,,,0.00,Wunderground v.1.15,2013-03-11 20:25:00,
2013-03-11 15:35:00,30.0,22.1,29.83,WNW,302,0.0,0.0,72,0.00,,,0.00,Wunderground v.1.15,2013-03-11 20:35:00,
2013-03-11 15:45:00,30.4,22.1,29.83,NW,305,0.0,0.0,71,0.00,,,0.00,Wunderground v.1.15,2013-03-11 20:45:00,
2013-03-11 15:50:00,30.6,22.0,29.84,NW,305,0.0,0.0,70,0.00,,,0.00,Wunderground v.1.15,2013-03-11 20:50:00,
2013-03-11 15:55:00,30.9,22.3,29.84,WNW,296,0.0,0.0,70,0.00,,,0.00,Wunderground v.1.15,2013-03-11 20:55:00,
2013-03-11 16:00:00,31.0,22.0,29.84,WNW,299,0.0,0.0,69,0.00,,,0.00,Wunderground v.1.15,2013-03-11 21:00:00,
2013-03-11 16:10:00,31.3,22.3,29.84,NW,304,0.0,0.0,69,0.00,,,0.00,Wunderground v.1.15,2013-03-11 21:10:00,
2013-03-11 16:20:00,32.1,23.1,29.84,West,281,0.0,0.0,69,0.00,,,0.00,Wunderground v.1.15,2013-03-11 21:20:00,
2013-03-11 16:25:00,32.4,22.7,29.84,NNW,330,0.0,0.0,67,0.00,,,0.00,Wunderground v.1.15,2013-03-11 21:25:00,
2013-03-11 16:35:00,32.7,23.3,29.84,NW,319,0.0,0.0,68,0.00,,,0.00,Wunderground v.1.15,2013-03-11 21:35:00,
2013-03-11 16:45:00,32.5,22.4,29.84,NW,311,0.0,0.0,66,0.00,,,0.00,Wunderground v.1.15,2013-03-11 21:45:00,
2013-03-11 16:55:00,33.2,23.1,29.84,West,277,0.0,0.0,66,0.00,,,0.00,Wunderground v.1.15,2013-03-11 21:55:00,
2013-03-11 17:05:00,33.4,23.3,29.85,NW,315,0.0,0.0,66,0.00,,,0.00,Wunderground v.1.15,2013-03-11 22:05:00,
2013-03-11 17:15:00,33.8,24.0,29.85,WNW,294,0.0,0.0,67,0.00,,,0.00,Wunderground v.1.15,2013-03-11 22:15:00,
2013-03-11 17:20:00,33.7,22.8,29.84,NW,305,0.0,0.0,64,0.00,,,0.00,Wunderground v.1.15,2013-03-11 22:20:00,
2013-03-11 17:30:00,34.0,23.1,29.84,West,277,0.0,0.0,64,0.00,,,0.00,Wunderground v.1.15,2013-03-11 22:30:00,
2013-03-11 17:40:00,34.1,22.8,29.84,WNW,287,0.0,0.0,63,0.00,,,0.00,Wunderground v.1.15,2013-03-11 22:40:00,
2013-03-11 17:50:00,34.1,22.4,29.83,West,275,0.0,0.0,62,0.00,,,0.00,Wunderground v.1.15,2013-03-11 22:50:00,
2013-03-11 18:00:00,34.4,23.1,29.83,WNW,295,0.0,0.0,63,0.00,,,0.00,Wunderground v.1.15,2013-03-11 23:00:00,
2013-03-11 18:05:00,34.6,22.9,29.84,NW,306,0.0,0.0,62,0.00,,,0.00,Wunderground v.1.15,2013-03-11 23:05:00,
2013-03-11 18:15:00,34.6,22.5,29.84,West,263,0.0,0.0,61,0.00,,,0.00,Wunderground v.1.15,2013-03-11 23:15:00,
2013-03-11 18:25:00,34.6,23.3,29.84,WNW,292,0.0,0.0,63,0.00,,,0.00,Wunderground v.1.15,2013-03-11 23:25:00,
2013-03-11 18:35:00,34.6,22.9,29.85,West,277,0.0,0.0,62,0.00,,,0.00,Wunderground v.1.15,2013-03-11 23:35:00,
2013-03-11 18:45:00,34.3,23.0,29.85,WNW,285,0.0,0.0,63,0.00,,,0.00,Wunderground v.1.15,2013-03-11 23:45:00,
2013-03-11 18:55:00,34.1,23.2,29.86,WNW,282,0.0,0.0,64,0.00,,,0.00,Wunderground v.1.15,2013-03-11 23:55:00,
2013-03-11 19:05:00,33.2,23.1,29.88,WNW,291,0.0,0.0,66,0.00,,,0.00,Wunderground v.1.15,2013-03-12 00:05:00,
2013-03-11 19:15:00,32.7,23.3,29.88,West,281,0.0,0.0,68,0.00,,,0.00,Wunderground v.1.15,2013-03-12 00:15:00,
2013-03-11 19:25:00,32.4,23.0,29.88,WNW,282,0.0,0.0,68,0.00,,,0.00,Wunderground v.1.15,2013-03-12 00:25:00,
2013-03-11 19:30:00,32.2,22.8,29.88,WNW,282,0.0,0.0,68,0.00,,,0.00,Wunderground v.1.15,2013-03-12 00:30:00,
2013-03-11 19:40:00,32.2,23.2,29.89,WNW,282,0.0,0.0,69,0.00,,,0.00,Wunderground v.1.15,2013-03-12 00:40:00,
2013-03-11 19:50:00,32.2,22.8,29.88,West,281,0.0,0.0,68,0.00,,,0.00,Wunderground v.1.15,2013-03-12 00:50:00,
2013-03-11 19:55:00,31.9,22.5,29.88,West,280,0.0,0.0,68,0.00,,,0.00,Wunderground v.1.15,2013-03-12 00:55:00,
2013-03-11 20:00:00,31.9,22.5,29.88,West,280,0.0,0.0,68,0.00,,,0.00,Wunderground v.1.15,2013-03-12 01:00:00,
2013-03-11 20:10:00,31.6,22.2,29.89,West,280,0.0,0.0,68,0.00,,,0.00,Wunderground v.1.15,2013-03-12 01:10:00,
2013-03-11 20:15:00,31.5,22.1,29.89,West,281,0.0,0.0,68,0.00,,,0.00,Wunderground v.1.15,2013-03-12 01:15:00,
2013-03-11 20:25:00,31.3,22.3,29.90,West,281,0.0,0.0,69,0.00,,,0.00,Wunderground v.1.15,2013-03-12 01:25:00,
2013-03-11 20:35:00,31.3,22.0,29.89,West,281,0.0,0.0,68,0.00,,,0.00,Wunderground v.1.15,2013-03-12 01:35:00,
2013-03-11 20:40:00,31.5,22.1,29.89,West,281,0.0,0.0,68,0.00,,,0.00,Wunderground v.1.15,2013-03-12 01:40:00,
2013-03-11 20:50:00,31.3,22.3,29.88,West,281,0.0,0.0,69,0.00,,,0.00,Wunderground v.1.15,2013-03-12 01:50:00,
2013-03-11 21:00:00,30.7,22.1,29.88,West,281,0.0,0.0,70,0.00,,,0.00,Wunderground v.1.15,2013-03-12 02:00:00,
2013-03-11 21:05:00,30.9,21.9,29.89,West,280,0.0,0.0,69,0.00,,,0.00,Wunderground v.1.15,2013-03-12 02:05:00,
2013-03-11 21:15:00,31.3,21.6,29.89,West,278,0.0,0.0,67,0.00,,,0.00,Wunderground v.1.15,2013-03-12 02:15:00,
2013-03-11 21:25:00,32.4,21.9,29.90,West,278,0.0,0.0,65,0.00,,,0.00,Wunderground v.1.15,2013-03-12 02:25:00,
2013-03-11 21:30:00,32.2,21.7,29.90,West,278,0.0,0.0,65,0.00,,,0.00,Wunderground v.1.15,2013-03-12 02:30:00,
2013-03-11 21:40:00,30.7,21.4,29.92,West,278,0.0,0.0,68,0.00,,,0.00,Wunderground v.1.15,2013-03-12 02:40:00,
2013-03-11 21:45:00,30.4,21.4,29.92,West,280,0.0,0.0,69,0.00,,,0.00,Wunderground v.1.15,2013-03-12 02:45:00,
2013-03-11 21:55:00,30.0,21.1,29.92,West,280,0.0,0.0,69,0.00,,,0.00,Wunderground v.1.15,2013-03-12 02:55:00,
2013-03-11 22:05:00,29.7,21.1,29.91,West,280,0.0,0.0,70,0.00,,,0.00,Wunderground v.1.15,2013-03-12 03:05:00,
2013-03-11 22:10:00,29.7,20.8,29.91,West,280,0.0,0.0,69,0.00,,,0.00,Wunderground v.1.15,2013-03-12 03:10:00,
2013-03-11 22:20:00,29.7,20.8,29.90,West,280,0.0,0.0,69,0.00,,,0.00,Wunderground v.1.15,2013-03-12 03:20:00,
2013-03-11 22:30:00,29.3,21.1,29.90,West,280,0.0,0.0,71,0.00,,,0.00,Wunderground v.1.15,2013-03-12 03:30:00,
2013-03-11 22:35:00,29.0,21.1,29.92,West,280,0.0,0.0,72,0.00,,,0.00,Wunderground v.1.15,2013-03-12 03:35:00,
2013-03-11 22:45:00,28.8,20.9,29.92,West,281,0.0,0.0,72,0.00,,,0.00,Wunderground v.1.15,2013-03-12 03:45:00,
2013-03-11 22:55:00,29.1,20.9,29.93,West,281,0.0,0.0,71,0.00,,,0.00,Wunderground v.1.15,2013-03-12 03:55:00,
2013-03-11 23:00:00,29.0,21.1,29.93,West,281,0.0,0.0,72,0.00,,,0.00,Wunderground v.1.15,2013-03-12 04:00:00,
2013-03-11 23:05:00,29.0,21.1,29.93,West,281,0.0,0.0,72,0.00,,,0.00,Wunderground v.1.15,2013-03-12 04:05:00,
2013-03-11 23:10:00,28.7,20.8,29.93,West,281,0.0,0.0,72,0.00,,,0.00,Wunderground v.1.15,2013-03-12 04:10:00,
2013-03-11 23:20:00,28.5,20.6,29.94,West,278,0.0,0.0,72,0.00,,,0.00,Wunderground v.1.15,2013-03-12 04:20:00,
2013-03-11 23:25:00,28.5,20.6,29.94,West,277,0.0,0.0,72,0.00,,,0.00,Wunderground v.1.15,2013-03-12 04:25:00,
2013-03-11 23:35:00,28.7,20.8,29.95,West,280,0.0,0.0,72,0.00,,,0.00,Wunderground v.1.15,2013-03-12 04:35:00,
2013-03-11 23:45:00,28.5,20.6,29.95,West,280,0.0,0.0,72,0.00,,,0.00,Wunderground v.1.15,2013-03-12 04:45:00,
2013-03-11 23:55:00,28.4,20.8,29.95,West,280,0.0,0.0,73,0.00,,,0.00,Wunderground v.1.15,2013-03-12 04:55:00,